EHI
0 0 0 0 0 0 0 0 0 0 0 0 0 0 0 0 0 0 0 0 1 0 1 3 4 3 1 0 0 1 1 0 0 1 2 1 0 1 2 1 2 4 6 6 5 3 1 0 0
0 0 0 0 0 0 0 0 0 0 0 0 0 0 0 0 0 0 0 1 1 1 0 2 4 3 1 1 1 2 2 1 0 1 2 1 1 1 2 1 3 5 8 8 6 4 1 0 0
0 0 0 0 0 0 0 0 0 0 0 0 0 0 0 0 0 0 1 1 1 1 0 2 4 3 1 2 3 4 3 1 0 1 2 3 2 1 1 1 3 6 8 8 6 3 1 0 0
0 0 0 0 0 0 0 0 0 0 0 1 1 0 0 0 0 1 2 2 1 0 0 2 5 4 3 3 3 4 3 1 1 2 3 3 3 2 1 1 3 5 6 6 4 1 0 0 0
0 0 1 2 1 1 0 0 0 0 1 2 1 0 0 0 1 2 3 2 1 0 0 2 6 6 5 4 3 3 3 2 3 3 3 3 3 3 2 1 2 4 6 6 4 1 0 0 0
0 1 2 3 3 2 1 0 0 1 2 2 1 0 0 0 1 2 3 2 1 0 0 2 5 6 5 4 3 3 2 2 4 5 4 3 3 3 3 2 3 4 6 6 5 2 0 0 0
0 1 2 3 3 2 1 0 0 1 2 2 1 0 1 1 2 3 3 2 1 0 0 1 2 3 4 4 3 3 2 2 5 5 3 2 2 2 2 2 3 3 3 5 5 3 1 0 0
0 1 2 3 2 1 0 0 0 0 2 2 1 0 1 2 2 2 2 1 0 0 0 0 0 0 1 2 2 2 2 3 4 3 1 1 1 0 1 1 2 2 2 3 4 3 1 0 0
1 1 2 2 1 0 0 0 0 0 1 2 1 0 1 2 1 1 1 0 0 0 0 0 0 0 0 1 1 1 2 2 2 1 0 0 0 0 0 0 1 2 2 2 3 2 1 0 0
2 3 3 3 2 1 0 0 0 0 1 1 1 2 3 2 1 0 0 0 0 0 0 0 0 0 0 0 0 0 1 1 0 0 0 0 0 0 0 0 0 1 1 1 1 2 1 0 0
3 3 3 3 3 2 0 0 0 0 0 0 1 5 5 3 0 0 0 0 0 0 0 0 0 0 0 0 0 0 0 0 0 0 1 0 0 0 0 0 0 0 0 0 0 1 1 0 0
3 3 3 3 3 1 0 0 0 0 0 0 3 6 6 3 1 0 0 0 0 0 0 0 0 0 0 0 0 0 0 0 0 0 0 0 0 0 0 0 0 0 0 0 0 0 0 0 0
2 2 2 2 2 1 0 0 0 0 0 2 5 6 5 2 1 0 0 0 0 0 0 0 0 0 0 0 0 0 0 0 0 0 0 0 0 0 0 0 0 0 0 0 0 0 0 0 0
1 1 0 1 1 0 0 0 0 0 1 4 7 8 5 3 1 0 0 1 1 1 0 0 0 0 0 0 0 0 0 0 0 0 0 0 0 0 0 0 0 0 0 0 0 0 0 0 0
0 0 0 0 0 0 0 0 0 1 3 7 9 9 7 4 2 1 0 1 2 1 0 0 0 0 0 0 0 0 0 0 0 0 0 0 0 0 0 0 0 0 0 0 0 0 0 0 0
0 0 0 0 0 0 0 0 0 1 4 8 9 9 7 4 3 1 0 1 1 1 0 0 0 0 0 0 0 0 0 0 0 0 0 0 0 0 0 0 0 0 0 0 0 0 0 0 0
0 0 0 0 0 0 0 0 0 1 4 6 8 7 5 4 3 2 0 0 0 0 0 0 0 0 0 0 0 0 0 0 0 0 0 0 0 0 0 0 0 0 0 0 0 0 0 0 0
0 0 0 0 0 0 0 0 1 1 2 4 5 4 3 3 2 1 0 0 0 0 0 0 0 0 0 0 0 0 0 0 0 0 0 0 0 0 0 0 0 0 0 0 0 0 0 0 0
0 0 0 0 0 0 0 1 1 1 1 2 3 3 2 1 1 0 1 1 1 0 1 1 1 1 1 1 0 0 0 0 0 0 0 0 0 0 0 0 0 0 0 0 0 0 0 0 0
0 0 0 0 0 0 1 1 1 1 1 2 2 1 1 0 0 0 1 2 2 1 1 2 3 2 2 2 1 0 0 0 0 0 0 0 0 0 0 0 0 0 0 0 0 0 0 0 0
0 0 0 0 0 0 0 0 0 0 1 2 2 1 0 0 0 1 1 3 3 2 2 2 3 3 3 3 1 0 0 0 0 0 0 0 0 0 0 0 0 0 0 0 0 0 0 0 0
0 0 0 0 0 0 0 0 0 0 1 2 2 1 0 1 1 2 3 4 4 4 3 3 3 4 4 4 3 1 0 0 0 0 0 0 0 0 0 0 0 0 0 0 0 0 0 0 0
0 0 0 0 0 0 0 0 0 0 1 1 1 1 1 2 2 3 5 6 6 6 5 4 5 7 7 6 4 2 0 0 0 0 0 0 0 0 0 0 0 0 0 0 0 0 0 0 0
0 0 0 0 0 0 0 0 0 0 0 0 1 2 3 4 4 5 7 9 8 8 8 9 10 10 9 8 8 5 2 1 1 1 0 0 0 0 0 0 0 0 0 0 0 0 0 0 0
0 0 0 0 0 0 0 0 0 0 1 1 1 3 4 5 5 7 10 12 11 11 13 15 14 12 10 10 11 9 5 3 2 2 1 0 0 0 0 0 0 0 0 0 0 0 0 0 0
0 0 0 0 0 0 0 0 0 1 2 2 3 4 4 4 5 7 10 12 13 15 18 18 15 12 12 13 13 12 9 5 4 3 2 1 0 0 1 1 0 0 0 0 0 0 0 0 1
0 0 0 0 0 0 0 0 0 1 2 2 3 4 3 2 3 6 7 9 12 15 17 16 13 13 15 15 16 15 13 8 5 4 4 2 1 0 1 1 1 1 0 0 0 0 0 0 1
0 0 0 0 0 0 0 0 0 1 1 2 2 2 2 2 3 4 5 6 8 11 13 12 12 14 17 18 18 18 16 11 8 7 6 4 2 1 1 2 2 2 2 2 1 1 1 1 1
0 0 0 0 0 0 0 0 0 1 2 4 3 2 2 3 3 5 5 5 6 9 10 11 12 15 17 17 18 17 15 12 10 9 8 7 5 2 1 2 3 4 4 5 4 3 3 3 3
0 0 0 0 0 0 0 0 0 1 3 5 4 3 2 3 4 4 5 5 6 9 11 11 12 14 15 15 16 15 13 11 11 10 9 9 7 5 3 3 3 4 6 6 6 5 5 5 4
Wind_Speed
7 5 2 1 3 4 2 2 1 2 3 3 4 5 5 4 2 2 1 2 3 2 1 2 5 5 6 7 8 8 7 7 8 8 8 10 11 11 12 12 12 12 12 13 15 14 14 14 14
4 4 1 2 4 3 2 2 2 2 3 3 4 5 5 4 3 3 1 2 3 2 2 3 5 5 6 7 7 7 7 8 8 8 8 10 11 12 13 13 13 13 14 14 15 15 15 14 14
4 2 2 3 3 2 1 1 2 3 3 2 3 4 4 2 3 2 2 4 4 3 2 3 6 6 7 7 7 7 7 7 7 8 9 10 11 12 13 13 14 14 14 14 14 14 14 14 13
2 1 3 4 2 2 2 2 3 4 2 4 4 4 3 2 2 3 5 5 4 3 1 2 6 6 7 7 7 7 7 7 7 8 8 10 11 12 13 13 13 13 14 14 14 14 13 13 13
1 2 4 3 2 2 0 2 2 2 2 4 4 4 3 4 6 7 6 5 4 2 1 2 6 6 6 6 7 7 7 7 8 8 9 10 11 12 12 12 13 13 13 13 14 14 13 12 12
2 3 4 2 2 2 1 1 3 3 4 4 4 4 2 2 5 6 5 4 3 2 2 1 5 6 6 6 6 6 6 8 8 9 9 10 11 12 12 12 12 13 12 13 13 13 12 11 11
3 3 2 0 1 1 1 3 4 5 4 3 4 4 2 2 3 5 4 4 3 2 2 2 2 3 5 5 6 6 7 7 8 8 9 11 12 11 11 11 11 11 11 11 11 11 10 10 9
3 3 2 1 0 1 1 3 3 5 4 4 4 6 4 4 5 6 5 4 3 2 2 2 2 2 2 2 5 5 6 7 7 8 9 11 11 10 10 9 9 10 10 10 9 9 8 8 8
2 4 0 2 2 1 2 3 3 4 5 3 3 4 5 9 8 7 4 3 2 1 1 1 2 2 2 2 3 3 4 5 6 6 9 8 5 5 6 7 8 8 8 8 8 7 7 6 5
3 2 3 3 3 3 2 3 4 5 4 3 5 5 9 9 8 7 5 3 2 1 1 1 1 1 2 2 2 3 3 4 4 4 5 4 4 3 4 5 7 7 7 7 6 5 5 4 2
3 3 2 1 2 3 3 2 3 7 3 4 8 9 10 9 7 6 4 3 3 2 2 2 1 1 1 1 2 2 2 3 3 4 4 4 3 3 3 2 3 3 4 3 3 3 2 2 2
2 2 2 1 1 3 3 4 3 4 4 6 9 11 11 9 7 6 5 4 2 2 2 2 2 1 1 1 1 1 2 2 2 2 3 2 2 2 2 2 2 2 1 2 2 1 2 2 2
1 1 0 1 1 2 3 3 3 2 4 8 10 10 10 9 6 5 4 3 3 3 2 2 2 2 1 1 1 1 1 1 1 1 2 2 2 2 2 1 1 1 1 1 1 1 1 1 1
0 1 1 2 2 2 4 3 3 2 7 9 9 8 8 8 6 5 4 4 4 3 3 2 3 2 2 2 1 1 1 1 1 1 1 1 2 1 1 1 1 1 1 1 1 1 1 0 1
2 3 4 2 2 1 5 3 0 4 8 8 8 7 7 6 6 6 6 5 5 4 3 3 3 2 2 2 2 1 1 1 1 1 0 1 2 1 1 1 0 0 1 1 1 1 1 1 1
3 4 2 2 1 1 5 1 2 6 9 8 7 6 6 5 6 5 5 4 4 4 4 3 4 3 3 2 2 1 1 1 1 1 0 1 1 2 1 1 0 0 1 1 1 1 1 1 1
4 2 1 3 1 2 3 2 2 5 8 7 7 6 6 4 4 4 5 5 5 5 4 4 3 4 3 3 2 1 1 1 0 0 0 0 1 1 1 1 0 1 1 1 1 1 1 1 0
2 1 2 3 2 2 1 2 2 6 8 7 6 6 6 6 6 5 5 5 5 4 4 4 3 3 3 2 2 1 2 1 1 0 0 0 1 1 1 1 0 1 1 1 1 1 1 1 0
3 2 2 4 1 2 1 2 3 5 6 6 5 5 6 6 4 4 4 5 4 4 4 4 4 3 3 2 2 1 0 0 0 0 0 0 0 1 1 1 0 1 1 1 1 1 1 1 1
2 1 2 3 1 2 1 2 2 4 7 8 8 8 7 5 4 4 4 4 5 5 5 5 4 4 3 3 2 2 1 1 0 1 1 1 0 1 1 1 1 1 1 1 1 2 1 1 1
2 3 4 3 1 3 2 4 2 2 3 4 5 6 6 8 8 6 6 6 5 5 6 6 5 4 3 3 2 2 2 2 1 1 1 1 0 0 1 1 1 1 2 2 2 2 2 1 1
3 4 5 3 2 1 1 2 5 3 3 5 6 7 8 8 8 7 7 7 7 7 5 5 5 4 3 4 3 3 2 2 1 0 0 1 1 1 1 1 1 1 1 1 2 2 2 2 1
4 1 3 2 3 2 2 1 7 1 4 6 7 8 9 9 10 10 10 9 7 6 5 5 4 4 3 4 4 4 2 1 1 1 1 1 2 2 1 1 1 1 1 1 1 1 2 2 2
4 6 6 6 5 1 2 2 6 4 6 5 6 7 8 8 9 9 8 6 5 5 5 5 5 4 4 4 4 4 4 3 2 1 0 0 1 1 1 1 1 1 1 1 1 1 2 1 2
4 6 5 5 4 4 2 2 8 6 5 6 6 6 6 7 8 8 8 8 7 7 7 7 6 5 4 4 4 4 4 4 3 2 1 1 0 1 1 0 0 1 1 1 1 1 1 1 2
2 7 7 4 4 4 2 4 6 3 2 2 3 3 4 4 5 6 7 8 8 8 7 7 7 6 5 5 4 3 3 3 2 2 2 2 1 1 1 1 1 1 1 1 1 1 1 1 1
5 2 4 7 2 1 5 5 6 2 3 2 2 2 3 4 5 6 6 7 7 7 8 8 7 6 5 5 4 3 3 3 3 2 2 1 1 1 1 1 1 1 1 1 1 1 1 1 1
5 7 5 6 4 2 4 4 3 4 3 2 1 1 2 2 3 3 4 6 6 6 6 6 6 6 5 5 4 4 3 3 3 2 2 2 2 2 1 1 1 1 1 1 1 1 1 1 1
4 4 5 4 4 5 2 6 3 4 4 3 2 1 2 2 2 3 3 4 5 5 6 5 5 5 5 5 4 3 3 3 3 2 2 2 2 2 2 2 2 2 1 1 1 1 1 1 1
4 5 6 5 3 4 4 7 3 1 1 1 0 1 1 1 1 2 3 4 5 5 5 5 5 4 5 4 4 4 3 3 3 3 3 2 2 2 2 2 2 2 2 2 2 2 2 2 2
Wind_Direction
162 152 155 116 53 49 24 344 38 42 47 36 63 77 90 84 107 135 259 108 102 107 116 124 102 92 88 84 85 84 84 87 90 92 98 110 117 122 122 121 120 122 126 129 133 134 133 132 134
150 158 160 57 70 55 342 338 55 74 135 131 71 67 70 63 67 102 107 120 110 112 99 111 109 101 93 86 81 81 83 86 88 93 101 108 116 119 118 119 118 115 114 118 121 124 125 125 128
167 194 71 64 79 143 226 299 119 100 117 92 69 58 73 81 103 129 154 130 103 93 87 109 110 104 94 85 81 81 84 86 90 96 102 108 114 116 117 116 117 115 114 113 115 120 121 122 122
162 67 52 62 52 230 193 198 139 129 82 55 85 65 57 58 127 131 126 120 107 92 94 121 113 107 98 89 85 78 79 84 95 100 103 107 112 115 115 117 118 116 114 111 112 119 118 120 119
81 77 56 38 336 331 148 168 156 111 85 74 90 84 44 18 90 111 119 119 117 102 78 114 118 112 103 94 88 83 78 84 95 100 108 113 116 117 117 116 115 115 114 113 112 116 118 117 118
60 63 67 24 338 9 48 123 113 100 95 89 93 85 47 64 100 116 117 113 113 104 62 79 123 117 107 98 91 86 85 89 92 98 109 117 119 118 116 115 115 114 114 113 115 117 117 117 117
91 78 92 24 341 356 92 82 106 114 112 121 115 92 75 102 113 113 107 103 90 77 63 41 75 108 113 106 96 88 85 84 86 92 103 112 114 114 114 114 115 115 115 116 119 119 121 121 122
125 91 53 0 204 291 67 70 94 109 108 119 115 130 169 173 128 107 93 85 76 65 63 52 46 52 58 77 98 94 88 85 85 90 101 106 109 109 110 110 115 117 118 120 122 121 121 120 124
104 75 104 221 191 213 100 89 83 85 101 102 110 137 152 135 125 113 102 85 86 84 30 58 55 54 60 58 77 76 82 77 75 77 92 91 82 86 98 109 115 115 116 119 121 119 115 111 110
97 115 223 211 180 161 135 123 130 102 104 97 86 94 118 131 134 135 141 150 166 194 213 137 105 71 56 67 53 41 49 49 50 51 59 68 75 84 94 102 107 112 116 116 113 110 106 99 88
139 183 224 232 182 145 134 129 122 126 151 171 152 145 141 142 142 148 159 170 182 177 160 148 138 98 71 55 60 48 44 46 49 54 57 64 68 73 69 69 77 84 94 89 88 85 82 92 93
146 248 207 244 122 125 145 135 120 149 189 157 149 147 147 152 161 167 171 177 159 141 158 145 142 127 103 85 79 72 63 55 53 51 58 71 76 76 72 72 70 70 73 78 76 84 79 94 108
134 279 45 139 58 121 114 120 128 128 115 120 129 140 153 162 168 173 168 165 155 163 171 161 157 152 143 129 131 107 91 87 75 55 59 85 93 89 76 63 66 75 86 101 97 91 85 92 117
192 59 16 26 59 80 107 85 91 134 125 125 138 153 163 168 167 161 162 168 172 177 180 164 160 165 149 145 146 132 121 112 96 75 69 100 106 98 85 70 58 60 99 100 104 119 115 94 105
71 53 14 14 44 87 97 54 167 151 137 143 158 163 166 170 166 174 180 178 179 178 172 165 165 152 150 157 161 137 141 127 121 136 111 123 126 123 112 99 70 21 87 93 90 72 75 82 91
44 52 13 302 46 103 107 212 229 150 148 159 169 169 169 181 185 185 177 174 174 165 165 175 170 151 154 154 147 123 131 137 152 153 156 152 139 147 138 135 199 155 115 120 121 96 76 67 99
33 52 289 289 209 120 120 226 222 160 161 171 177 176 173 180 195 193 181 177 175 171 167 167 161 153 153 143 133 123 109 125 146 133 159 178 144 152 144 143 171 129 118 135 146 112 126 117 118
214 218 282 274 253 116 136 240 213 173 174 182 183 183 181 190 203 195 183 178 170 166 162 162 157 150 139 120 101 81 64 51 73 102 205 177 168 143 125 133 137 118 112 116 128 125 104 123 134
167 176 263 271 234 122 189 236 233 179 175 183 190 194 200 206 202 183 177 171 161 160 162 169 164 159 142 133 137 132 153 329 14 320 289 224 161 144 142 169 137 132 148 167 146 139 116 82 112
159 179 272 306 15 111 193 274 250 189 196 192 190 198 202 193 182 185 181 174 176 180 181 179 177 170 164 158 156 150 142 135 175 340 8 20 118 152 163 168 164 154 152 147 150 151 137 103 106
211 190 210 225 14 51 76 337 300 252 206 195 196 199 198 196 194 192 190 186 178 183 187 187 184 175 171 152 121 96 75 50 36 12 350 338 40 123 144 152 147 150 159 173 179 165 159 167 115
237 217 185 174 106 312 81 278 284 259 252 218 211 203 202 202 196 193 193 192 190 192 183 177 171 166 161 149 140 136 144 163 202 231 327 355 21 45 89 110 127 128 132 158 186 168 160 159 168
206 127 118 113 119 58 20 172 283 319 263 248 227 217 208 200 196 196 197 195 192 183 175 172 163 164 162 155 153 147 150 169 143 84 55 18 12 24 48 78 93 105 113 125 133 127 146 162 167
128 74 58 52 68 19 244 181 274 237 232 244 225 217 209 200 197 198 194 184 182 173 167 166 165 173 167 164 165 162 166 159 140 129 112 8 356 3 16 70 81 82 92 113 125 120 129 147 149
87 87 39 7 13 259 265 197 251 252 236 219 212 206 198 192 189 190 186 183 182 178 176 173 172 181 177 172 176 174 172 163 172 184 186 180 243 305 299 75 110 114 124 115 111 113 121 147 146
165 135 151 187 221 278 325 237 256 271 268 231 199 179 168 176 183 188 190 185 184 182 177 174 176 184 181 181 188 182 174 172 186 191 184 195 215 236 244 181 166 165 151 140 122 126 160 138 154
130 134 153 129 131 315 288 287 306 352 24 42 92 121 160 180 184 189 183 177 180 178 178 177 176 178 178 180 178 177 178 183 194 194 189 200 217 219 205 186 186 200 179 169 148 149 179 143 168
123 138 98 111 138 242 296 289 270 303 328 355 37 184 198 183 185 182 178 180 178 174 171 168 173 177 177 173 177 180 184 193 194 182 190 202 211 209 185 189 193 195 191 180 164 182 195 175 222
91 84 97 105 141 154 236 270 247 237 228 213 227 233 208 173 180 179 174 169 161 154 154 160 169 168 167 173 175 174 181 192 186 191 208 211 211 205 205 208 206 203 205 192 180 207 205 204 232
136 146 140 141 199 171 180 262 320 250 180 161 153 21 51 134 141 147 140 137 136 145 154 161 169 176 183 177 170 178 185 183 189 202 213 205 207 211 213 211 211 219 219 208 200 220 224 219 232